Clermont County, Batavia, OH

5:46 AM EDT on March 27, 2017 (GMT -0400)
Clermont County, Batavia

Weather History for KI69 - February, 2014

Change the Weather History Date:

Sunday, February 2, 2014

  Actual Average (KLUK) Record (KLUK)
Temperature  
Mean Temperature 40 °F -  
Max Temperature 51 °F 43 °F 62 °F (1990)
Min Temperature 30 °F 23 °F -9 °F (1951)
Degree Days  
Heating Degree Days 24    
Moisture  
Dew Point 34 °F    
Average Humidity 92    
Maximum Humidity 100    
Minimum Humidity 67    
Precipitation  
Precipitation 0.15 in - - ()
Sea Level Pressure  
Sea Level Pressure 30.08 in    
Wind  
Wind Speed 6 mph (North)    
Max Wind Speed 12 mph    
Max Gust Speed 18 mph    
Visibility 7 miles    
Events Rain , Snow    
Averages and records for this station are not official NWS values.
T = Trace of Precipitation, MM = Missing Value Source: NWS Daily Summary

Daily Weather History Graph

Daily Weather History Graph

Search for Another Location

Airport or City:

Trip Planner

Search our weather history database for the weather conditions in past years. The results will help you decide how hot, cold, wet, or windy it might be!

Date:

Astronomy

Feb. 02, 2014 Rise Set
Actual Time 7:42 AM EST 5:59 PM EST
Civil Twilight 7:14 AM EST 6:27 PM EST
Nautical Twilight 6:42 AM EST 6:59 PM EST
Astronomical Twilight 6:11 AM EST 7:30 PM EST
Moon 9:10 AM EST (2/2) 9:40 PM EST (2/2)
Length of Visible Light 11h 12m
Length of Day
10h 16m
Waxing Crescent, 11% of the Moon is Illuminated
Feb 2
Waxing Crescent
Feb 6
First Quarter
Feb 14
Full
Feb 22
Last Quarter
Mar 1
New

Hourly Weather History & Observations

Time (EST) Temp. Windchill Dew Point Humidity Pressure Visibility Wind Dir Wind Speed Gust Speed Precip Events Conditions
12:15 AM 51.8 °F - 41.0 °F 67% 29.94 in 10.0 mi WNW 4.6 mph - N/A   Overcast
12:35 AM 51.8 °F - 41.0 °F 67% 29.94 in 10.0 mi West 4.6 mph - N/A Rain Light Rain
12:54 AM 50.0 °F - 42.8 °F 76% 29.94 in 10.0 mi West 3.5 mph - N/A Rain Rain
1:15 AM 48.2 °F - 42.8 °F 82% 29.94 in 10.0 mi West 4.6 mph - N/A   Drizzle
1:35 AM 48.2 °F - 44.6 °F 87% 29.94 in 5.0 mi West 4.6 mph - N/A   Drizzle
1:54 AM 46.4 °F 44.3 °F 44.6 °F 93% 29.94 in 4.0 mi West 4.6 mph - N/A   Drizzle
2:15 AM 46.4 °F - 46.4 °F 100% 29.93 in 3.0 mi Calm Calm - 0.01 in   Drizzle
2:35 AM 44.6 °F 40.7 °F 44.6 °F 100% 29.95 in 2.0 mi NNW 6.9 mph - 0.02 in   Unknown
2:55 AM 44.6 °F 42.2 °F 42.8 °F 93% 29.95 in 2.5 mi North 4.6 mph - 0.02 in   Unknown
3:15 AM 44.6 °F 41.4 °F 42.8 °F 93% 29.95 in 3.0 mi NNE 5.8 mph - N/A   Unknown
3:35 AM 42.8 °F 39.3 °F 42.8 °F 100% 29.95 in 4.0 mi North 5.8 mph - 0.01 in   Unknown
3:55 AM 42.8 °F 41.1 °F 41.0 °F 93% 29.95 in 2.5 mi NNE 3.5 mph - 0.01 in   Unknown
4:15 AM 41.0 °F 38.0 °F 41.0 °F 100% 29.92 in 4.0 mi NE 4.6 mph - N/A   Overcast
4:35 AM 41.0 °F 37.1 °F 41.0 °F 100% 29.94 in 7.0 mi North 5.8 mph - N/A Rain Light Rain
4:55 AM 41.0 °F 35.8 °F 41.0 °F 100% 29.95 in 7.0 mi North 8.1 mph - N/A Rain Rain
5:15 AM 39.2 °F 34.2 °F 39.2 °F 100% 29.97 in 4.0 mi North 6.9 mph - 0.02 in   Unknown
5:34 AM 37.4 °F 30.8 °F 37.4 °F 100% 29.97 in 3.0 mi North 9.2 mph - 0.04 in Snow Light Snow
5:55 AM 37.4 °F 31.4 °F 37.4 °F 100% 29.98 in 5.0 mi North 8.1 mph - 0.06 in Snow Light Snow
6:15 AM 37.4 °F 30.8 °F 37.4 °F 100% 29.98 in 4.0 mi North 9.2 mph - 0.02 in Snow Light Snow
6:35 AM 35.6 °F 28.6 °F 35.6 °F 100% 29.98 in 7.0 mi NNE 9.2 mph - 0.03 in Snow Light Snow
6:55 AM 35.6 °F 31.7 °F 35.6 °F 100% 30.00 in 10.0 mi North 4.6 mph - 0.03 in Snow Light Snow
7:15 AM 35.6 °F 29.9 °F 35.6 °F 100% 30.01 in 7.0 mi North 6.9 mph - 0.01 in Rain Light Rain
7:35 AM 35.6 °F 31.7 °F 35.6 °F 100% 30.03 in 5.0 mi North 4.6 mph - 0.02 in Snow Light Snow
7:55 AM 35.6 °F 29.9 °F 35.6 °F 100% 30.03 in 5.0 mi North 6.9 mph - 0.03 in Snow Light Snow
8:15 AM 33.8 °F 27.0 °F 33.8 °F 100% 30.03 in 7.0 mi North 8.1 mph - N/A Snow Light Snow
8:34 AM 33.8 °F 27.0 °F 33.8 °F 100% 30.03 in 10.0 mi North 8.1 mph - N/A Snow Light Snow
8:55 AM 33.8 °F 27.7 °F 33.8 °F 100% 30.05 in 10.0 mi NNE 6.9 mph - N/A   Overcast
9:15 AM 33.8 °F 29.6 °F 33.8 °F 100% 30.06 in 10.0 mi NNE 4.6 mph - N/A   Overcast
9:34 AM 33.8 °F 27.0 °F 33.8 °F 100% 30.07 in 10.0 mi North 8.1 mph - N/A   Overcast
9:55 AM 33.8 °F 27.7 °F 33.8 °F 100% 30.07 in 10.0 mi North 6.9 mph - N/A   Overcast
10:15 AM 33.8 °F 27.0 °F 33.8 °F 100% 30.09 in 7.0 mi North 8.1 mph - N/A   Overcast
10:34 AM 33.8 °F 27.0 °F 33.8 °F 100% 30.10 in 7.0 mi North 8.1 mph - N/A   Overcast
10:55 AM 33.8 °F 29.6 °F 33.8 °F 100% 30.11 in 5.0 mi North 4.6 mph - N/A   Overcast
11:15 AM 33.8 °F 27.7 °F 32.0 °F 93% 30.11 in 5.0 mi North 6.9 mph - N/A   Overcast
11:34 AM 33.8 °F 27.0 °F 32.0 °F 93% 30.11 in 5.0 mi North 8.1 mph - N/A   Overcast
11:55 AM 33.8 °F 27.7 °F 32.0 °F 93% 30.11 in 5.0 mi North 6.9 mph - N/A   Overcast
12:15 PM 33.8 °F 26.4 °F 32.0 °F 93% 30.12 in 5.0 mi North 9.2 mph - N/A   Overcast
12:34 PM 33.8 °F 29.6 °F 32.0 °F 93% 30.12 in 5.0 mi NNW 4.6 mph - N/A   Overcast
12:55 PM 33.8 °F 25.3 °F 32.0 °F 93% 30.11 in 7.0 mi NNW 11.5 mph - N/A   Overcast
1:15 PM 33.8 °F 26.4 °F 32.0 °F 93% 30.11 in 7.0 mi North 9.2 mph - N/A   Overcast
1:35 PM 33.8 °F 27.0 °F 32.0 °F 93% 30.10 in 7.0 mi North 8.1 mph - N/A   Overcast
1:55 PM 33.8 °F 25.8 °F 32.0 °F 93% 30.09 in 5.0 mi North 10.4 mph - N/A   Overcast
2:15 PM 33.8 °F 27.0 °F 32.0 °F 93% 30.09 in 7.0 mi North 8.1 mph - N/A   Overcast
2:34 PM 33.8 °F 25.8 °F 32.0 °F 93% 30.09 in 4.0 mi NNW 10.4 mph - N/A   Overcast
2:55 PM 33.8 °F 26.4 °F 32.0 °F 93% 30.08 in 5.0 mi North 9.2 mph - N/A   Overcast
3:15 PM 33.8 °F 25.3 °F 32.0 °F 93% 30.11 in 5.0 mi North 11.5 mph 18.4 mph N/A   Overcast
3:34 PM 32.0 °F 24.2 °F 30.2 °F 93% 30.15 in 5.0 mi NNW 9.2 mph - N/A   Overcast
3:55 PM 32.0 °F 24.2 °F 30.2 °F 93% 30.16 in 5.0 mi North 9.2 mph - N/A   Overcast
4:15 PM 32.0 °F 24.8 °F 30.2 °F 93% 30.17 in 3.0 mi North 8.1 mph - N/A Snow Light Snow
4:35 PM 32.0 °F 26.4 °F 30.2 °F 93% 30.16 in 3.0 mi North 5.8 mph - N/A Snow Light Snow
4:55 PM 32.0 °F 24.8 °F 28.4 °F 87% 30.17 in 5.0 mi North 8.1 mph - N/A Snow Light Snow
5:15 PM 32.0 °F 24.8 °F 28.4 °F 87% 30.18 in 10.0 mi North 8.1 mph - N/A   Overcast
5:35 PM 32.0 °F 27.5 °F 28.4 °F 87% 30.19 in 10.0 mi North 4.6 mph - N/A   Overcast
5:55 PM 32.0 °F 25.6 °F 28.4 °F 87% 30.17 in 10.0 mi NNE 6.9 mph - N/A   Overcast
6:15 PM 32.0 °F 26.4 °F 28.4 °F 87% 30.18 in 10.0 mi North 5.8 mph - N/A   Overcast
6:35 PM 32.0 °F 27.5 °F 28.4 °F 87% 30.18 in 10.0 mi North 4.6 mph - N/A   Overcast
6:55 PM 32.0 °F 24.8 °F 28.4 °F 87% 30.18 in 10.0 mi North 8.1 mph - N/A   Overcast
7:15 PM 32.0 °F 25.6 °F 28.4 °F 87% 30.18 in 10.0 mi NNE 6.9 mph - N/A   Overcast
7:35 PM 32.0 °F 24.8 °F 28.4 °F 87% 30.18 in 10.0 mi North 8.1 mph - N/A   Overcast
7:55 PM 32.0 °F 27.5 °F 28.4 °F 87% 30.18 in 10.0 mi NE 4.6 mph - N/A   Overcast
8:15 PM 32.0 °F 27.5 °F 28.4 °F 87% 30.20 in 10.0 mi NNE 4.6 mph - N/A   Overcast
8:35 PM 32.0 °F 26.4 °F 28.4 °F 87% 30.20 in 10.0 mi NNE 5.8 mph - N/A   Overcast
8:55 PM 32.0 °F 27.5 °F 28.4 °F 87% 30.19 in 10.0 mi NE 4.6 mph - N/A   Overcast
9:15 PM 30.2 °F 24.3 °F 26.6 °F 86% 30.17 in 10.0 mi ENE 5.8 mph - N/A   Overcast
9:35 PM 30.2 °F 23.4 °F 28.4 °F 93% 30.18 in 10.0 mi NNE 6.9 mph - N/A   Overcast
9:55 PM 30.2 °F 22.6 °F 26.6 °F 86% 30.18 in 10.0 mi NNE 8.1 mph - N/A   Overcast
10:15 PM 30.2 °F 23.4 °F 26.6 °F 86% 30.17 in 10.0 mi NE 6.9 mph - N/A   Overcast
10:35 PM 30.2 °F 24.3 °F 26.6 °F 86% 30.17 in 10.0 mi NNE 5.8 mph - N/A   Overcast
10:55 PM 30.2 °F 23.4 °F 26.6 °F 86% 30.18 in 10.0 mi North 6.9 mph - N/A   Overcast
11:15 PM 30.2 °F 24.3 °F 26.6 °F 86% 30.19 in 10.0 mi NE 5.8 mph - N/A   Overcast
11:35 PM 30.2 °F 24.3 °F 26.6 °F 86% 30.18 in 5.0 mi NE 5.8 mph - N/A Snow Light Snow
11:55 PM 30.2 °F 25.4 °F 26.6 °F 86% 30.17 in 3.0 mi NE 4.6 mph - N/A Snow Light Snow